This is the latest recevied weather packets stored in our database for station/object KJ5FA-9. If no packets are shown the sender has not sent any weather packets the latest 10 day(s).
| Time | Temp. | Humidity | Pressure | Rain* | Wind** | Luminosity | Snow |
|---|---|---|---|---|---|---|---|
| 1788399573 | 31.11° C | 56% | 1015.2 hPa | 0 mm | - | - | - |
| 1788398075 | 31.67° C | 54% | 1014.7 hPa | 0 mm | - | - | - |
| 1788394767 | 33.33° C | 48% | 1014.5 hPa | 0 mm | - | - | - |
| 1788393258 | 33.89° C | 47% | 1014.3 hPa | 0 mm | - | - | - |
| 1788391760 | 34.44° C | 46% | 1014.4 hPa | 0 mm | - | - | - |
| 1788390258 | 35° C | 43% | 1014.5 hPa | 0 mm | - | - | - |
| 1788388760 | 35.56° C | 43% | 1014.4 hPa | 0 mm | - | - | - |
| 1788387258 | 36.67° C | 41% | 1014.5 hPa | 0 mm | - | - | - |
| 1788385756 | 36.67° C | 40% | 1014.8 hPa | 0 mm | - | - | - |
| 1788384258 | 36.67° C | 42% | 1015.2 hPa | 0 mm | - | - | - |
| 1788382758 | 36.11° C | 43% | 1015.4 hPa | 0 mm | - | - | - |
| 1788379758 | 36.67° C | 44% | 1015.5 hPa | 0 mm | - | - | - |
| 1788377166 | 35.56° C | 48% | 1016.1 hPa | 0 mm | 0 m/s | - | - |
| 1788375366 | 36.11° C | 46% | 1016.7 hPa | 0 mm | 0.45 m/s, 146° | - | - |
| 1788373566 | 35.56° C | 46% | 1017.2 hPa | 0 mm | 0.45 m/s, 255° | - | - |
| 1788371766 | 35.56° C | 46% | 1017.5 hPa | 0 mm | 0.89 m/s, 84° | - | - |
| 1788369966 | 35° C | 47% | 1017.9 hPa | 0 mm | 1.79 m/s, 179° | - | - |
| 1788368166 | 33.89° C | 53% | 1018.5 hPa | 0 mm | 2.24 m/s, 190° | - | - |
| 1788366366 | 32.78° C | 57% | 1018.7 hPa | 0 mm | 0.89 m/s, 325° | - | - |
| 1788364566 | 31.67° C | 58% | 1019.1 hPa | 0 mm | 0 m/s | - | - |
| 1788363258 | 30.56° C | 62% | 1018.8 hPa | 0 mm | - | - | - |
| 1788362766 | 30° C | 62% | 1019.2 hPa | 0 mm | 0.45 m/s, 154° | - | - |
| 1788360966 | 29.44° C | 64% | 1019.1 hPa | 0 mm | 0.89 m/s, 256° | - | - |
| 1788360258 | 28.89° C | 67% | 1019.1 hPa | 0 mm | - | - | - |
| 1788359166 | 28.33° C | 70% | 1019.1 hPa | 0 mm | 0.45 m/s, 335° | - | - |
* Rain latest hour (hover to see other rain measurements)
** Current wind speed in m/s (hover to see current wind gust speed)